Wind_Speed
11 11 11 10 10 11 12 13 13 13 13 13 13 13 12 11 12 12 12 13 14 14 14 15 16 17 18 18 18 19 20 20 20 21 22 23 23 23 23 24 25 26 26
12 12 12 12 12 13 14 14 14 14 14 14 14 14 13 13 14 14 14 15 15 15 16 17 17 17 18 19 19 20 20 20 21 21 22 23 23 23 23 24 25 26 26
14 14 14 14 14 15 15 15 15 15 15 15 15 15 15 14 14 14 14 15 15 16 16 17 17 18 19 19 20 20 20 21 21 21 22 22 23 24 24 25 25 25 26
16 16 15 16 16 17 17 17 16 16 16 16 17 17 17 16 15 15 15 15 16 17 17 18 18 18 19 19 20 20 20 21 22 22 21 22 23 24 25 26 26 27 26
19 18 18 18 18 18 18 18 18 17 18 18 18 18 18 17 17 17 17 17 18 18 19 19 20 20 20 20 21 21 21 22 22 22 23 23 24 25 26 26 27 27 27
22 21 21 20 21 21 20 20 20 20 20 20 20 20 19 19 19 19 19 20 20 21 21 22 21 21 22 22 22 22 22 23 23 23 24 25 25 26 26 27 27 27 27
25 24 23 23 23 23 23 24 23 22 23 23 22 22 22 22 21 21 21 22 22 22 23 23 22 22 23 23 24 24 24 24 24 25 25 26 26 26 27 27 27 28 28
28 27 27 26 26 26 27 26 26 26 25 24 24 24 24 24 24 24 24 24 24 24 24 25 25 24 24 25 25 25 25 25 25 26 26 26 27 27 27 28 28 28 28
30 30 30 30 29 29 29 29 28 27 26 26 26 26 26 26 27 26 26 26 26 27 27 28 27 27 27 27 27 26 27 27 27 26 27 27 28 28 29 29 29 29 29
32 33 33 33 32 31 30 30 29 29 29 29 28 28 28 28 28 28 27 28 28 28 29 29 29 29 29 29 28 28 28 28 28 28 28 29 29 29 30 30 31 31 31
36 36 36 36 35 34 33 33 32 32 31 31 30 30 29 29 29 29 29 29 30 31 31 31 31 31 30 29 29 29 29 29 30 30 30 30 31 31 32 32 32 32 32
39 39 39 38 38 37 36 35 35 34 34 33 32 31 31 30 29 29 30 31 32 33 33 33 33 32 30 30 30 30 30 30 31 32 32 32 32 33 33 33 33 33 33
42 42 42 41 41 40 39 38 37 35 34 34 33 32 32 31 30 30 31 33 34 35 35 35 34 32 31 31 31 32 32 33 33 33 34 34 34 35 35 34 34 34 34
43 43 43 43 42 41 41 40 39 37 35 34 34 34 34 32 32 32 33 33 34 35 36 35 34 33 33 33 33 33 34 34 34 34 35 35 35 35 35 35 35 35 35
44 45 46 43 41 41 40 40 39 37 36 36 36 35 35 34 34 35 36 35 35 35 36 36 35 35 35 35 35 35 35 35 35 35 35 36 36 36 37 37 37 37 36
45 46 46 45 44 43 44 42 39 37 37 38 38 38 36 35 36 36 37 37 37 37 36 35 35 35 35 36 36 36 36 37 38 38 38 38 38 38 38 38 38 38 38
45 45 45 45 43 42 43 42 40 39 39 38 37 37 37 37 37 37 38 39 38 38 37 36 35 35 36 36 36 36 37 37 38 38 39 39 38 38 38 38 38 39 38
44 44 45 43 44 44 44 44 44 41 38 38 37 38 39 38 38 38 39 38 37 36 36 36 36 36 37 37 37 37 38 38 38 38 38 38 38 38 39 39 39 39 39
44 44 44 43 43 43 43 42 40 38 38 38 38 39 39 39 39 38 37 37 36 36 36 36 37 38 38 38 38 38 38 38 38 38 38 38 38 38 38 39 38 38 37
42 42 41 41 41 40 39 38 38 36 36 37 38 38 39 38 37 36 36 36 37 37 38 38 38 38 38 38 39 39 38 38 38 38 38 38 38 38 39 39 39 38 38
40 40 40 40 40 39 37 37 36 36 37 38 37 37 37 36 35 35 36 36 37 37 37 37 37 37 37 38 38 38 37 37 37 38 38 38 38 38 39 39 39 38 37
39 39 39 38 38 36 36 35 35 36 36 36 35 34 33 34 35 35 35 36 36 37 37 36 36 37 37 37 37 37 37 37 37 38 38 39 39 39 39 39 38 37 36
35 35 35 36 35 36 36 35 34 33 33 33 32 31 32 33 34 35 36 36 36 36 36 36 36 36 36 37 37 37 37 37 38 38 38 39 39 39 38 38 37 36 36
32 33 34 34 33 33 34 33 32 31 31 31 31 31 32 32 33 34 35 36 35 35 35 35 35 35 36 36 36 37 37 37 37 38 38 38 38 38 38 37 37 36 36
31 32 32 32 32 32 33 32 31 31 30 30 30 31 32 33 33 33 34 34 34 35 35 34 35 35 35 35 35 36 35 36 36 37 37 37 37 37 37 37 37 37 37
28 29 30 30 31 31 31 30 30 30 29 29 30 31 32 32 32 32 32 33 33 34 34 34 34 34 34 34 34 34 34 35 36 36 36 36 36 36 36 35 36 36 37
Wind_Direction
318 322 322 322 324 326 328 330 330 331 333 333 332 327 317 313 312 309 311 315 316 312 308 307 306 304 302 302 300 297 295 294 292 291 289 285 285 285 285 285 284 282 281
307 311 315 317 315 317 317 317 319 320 321 321 322 322 316 310 306 307 308 311 313 312 309 307 304 304 303 301 300 300 299 298 296 294 292 288 285 286 286 287 286 285 282
297 301 306 309 308 309 309 309 309 311 314 314 313 313 315 313 309 307 306 308 311 311 311 310 307 305 304 302 301 301 300 300 297 295 294 291 288 287 287 288 287 287 286
289 293 297 300 302 302 304 304 303 303 305 307 307 307 307 308 308 305 304 306 309 310 310 310 309 308 307 306 304 303 302 301 299 297 295 294 293 290 287 286 287 287 286
283 287 291 294 297 299 299 299 298 298 299 300 301 302 302 302 303 302 302 304 308 310 310 310 311 311 310 307 305 304 303 301 300 298 297 296 295 293 290 289 288 287 285
277 281 287 292 293 294 293 292 292 294 294 295 296 295 295 297 298 298 298 300 304 306 308 309 309 310 311 309 306 304 303 303 300 298 298 296 295 294 292 291 290 288 285
277 280 283 287 290 290 290 289 288 289 290 291 293 291 289 291 293 296 296 296 298 301 302 304 305 306 307 308 306 305 303 302 300 299 298 297 296 295 294 292 291 289 287
273 276 279 283 285 288 289 289 287 288 289 289 293 294 291 290 291 293 296 296 295 296 298 300 301 301 302 304 303 302 301 301 300 299 297 297 297 296 294 293 292 291 288
270 273 276 278 282 284 285 287 287 285 287 287 289 291 290 289 290 289 291 293 293 293 294 296 298 298 299 300 300 300 299 298 298 298 296 296 296 296 295 294 293 291 289
269 271 273 276 278 279 281 283 284 284 285 286 288 289 289 288 287 285 286 289 289 291 293 294 296 296 295 296 296 297 298 298 296 296 295 296 296 295 295 295 293 292 290
265 268 271 273 274 276 278 280 282 284 285 284 284 285 286 286 286 283 284 285 287 288 291 293 294 295 293 293 294 295 296 297 296 295 294 294 295 295 295 294 293 291 290
265 265 267 269 271 272 275 277 280 282 282 282 280 281 282 283 284 284 283 285 286 288 290 290 292 292 290 290 292 294 295 295 296 295 294 294 294 294 294 293 292 291 290
263 265 268 269 271 272 273 276 278 279 281 280 279 279 280 280 283 285 285 286 287 288 289 289 289 290 290 290 291 292 293 294 294 294 293 293 293 293 293 292 291 290 289
264 265 267 269 270 270 272 275 276 278 277 277 277 277 276 278 282 284 287 289 288 288 288 288 288 288 289 289 289 290 291 291 292 293 293 292 292 292 292 292 292 290 289
264 265 267 267 269 272 275 277 277 276 277 275 273 275 276 277 280 282 286 288 289 289 289 287 287 289 289 288 289 288 289 291 292 292 292 292 292 292 292 291 291 291 290
264 264 266 268 271 272 275 276 276 275 275 276 275 275 275 276 278 280 283 285 287 287 288 289 288 289 289 289 288 289 290 291 291 292 292 292 292 292 292 292 292 291 290
266 265 266 267 269 270 273 275 273 273 274 275 275 275 274 275 277 280 283 284 285 285 284 286 287 288 288 288 289 289 291 292 292 292 292 292 292 292 292 292 292 291 290
266 266 267 267 269 270 271 271 272 271 272 274 273 273 275 277 278 280 283 284 284 285 284 284 286 288 289 289 289 289 290 290 291 291 292 292 292 292 292 292 292 292 291
266 267 267 268 270 271 271 270 269 270 271 273 273 273 275 277 279 280 281 282 283 283 283 284 286 287 289 289 289 290 289 289 290 290 291 291 291 292 292 292 292 292 292
266 266 266 268 269 269 269 268 268 270 272 274 275 274 275 276 276 277 279 281 282 283 283 284 285 287 288 288 289 289 289 289 289 289 290 290 291 292 292 293 292 292 292
264 265 266 268 267 267 268 268 267 269 272 273 274 276 277 275 275 277 279 281 283 284 284 284 285 286 287 288 288 288 288 288 288 289 289 290 291 292 292 292 292 291 291
264 265 266 268 267 266 267 267 268 269 272 272 273 275 276 274 275 275 279 282 283 283 284 284 285 286 287 287 287 287 287 287 288 289 289 290 291 291 291 291 291 291 292
263 265 266 268 268 266 267 267 268 269 270 272 274 275 275 275 275 278 280 282 282 282 284 284 284 284 285 286 286 286 288 289 289 289 289 289 289 290 290 291 291 291 291
264 264 267 268 267 269 269 269 269 269 271 273 274 274 275 276 278 278 279 280 281 282 284 284 284 285 285 285 285 286 288 288 289 289 290 290 290 291 291 292 291 292 291
267 268 268 270 270 271 272 271 273 274 273 273 274 274 275 276 278 279 280 279 280 281 283 284 284 285 285 285 286 287 288 289 290 290 291 291 292 292 292 291 291 292 292
269 270 269 270 271 272 273 272 273 274 275 275 275 276 277 278 279 280 282 282 283 283 283 283 284 285 286 287 288 289 290 291 292 292 292 293 292 292 292 292 292 292 293
Height
5902 5901 5899 5898 5896 5895 5893 5891 5889 5888 5886 5884 5882 5880 5878 5876 5875 5874 5873 5871 5870 5868 5866 5865 5863 5861 5859 5857 5855 5854 5852 5850 5849 5847 5845 5843 5842 5841 5840 5839 5837 5836 5835
5900 5899 5897 5895 5894 5892 5891 5889 5887 5885 5884 5882 5880 5877 5875 5873 5872 5871 5870 5868 5866 5865 5863 5861 5859 5857 5855 5853 5851 5849 5847 5845 5843 5842 5840 5838 5836 5835 5833 5832 5831 5829 5828
5897 5895 5894 5893 5891 5889 5887 5886 5884 5882 5881 5879 5877 5875 5873 5871 5869 5867 5866 5864 5863 5861 5859 5857 5855 5853 5850 5848 5846 5844 5842 5840 5838 5836 5834 5832 5831 5829 5827 5826 5824 5823 5821
5892 5891 5890 5889 5887 5885 5884 5882 5880 5879 5877 5875 5874 5872 5870 5868 5866 5864 5862 5860 5859 5857 5855 5853 5851 5848 5846 5843 5841 5839 5837 5834 5832 5830 5828 5826 5824 5822 5821 5819 5818 5816 5814
5888 5887 5886 5884 5883 5881 5879 5878 5876 5875 5873 5871 5869 5868 5866 5864 5862 5860 5858 5856 5855 5853 5851 5849 5846 5843 5841 5839 5836 5834 5831 5829 5827 5824 5822 5820 5818 5816 5814 5812 5810 5809 5807
5882 5881 5880 5879 5878 5876 5874 5873 5871 5870 5868 5866 5865 5863 5861 5859 5857 5856 5854 5852 5850 5848 5846 5844 5841 5838 5836 5833 5831 5828 5826 5823 5821 5818 5816 5814 5812 5810 5807 5805 5803 5802 5800
5875 5875 5874 5873 5872 5870 5868 5867 5866 5864 5862 5861 5859 5857 5855 5854 5852 5850 5848 5846 5844 5842 5840 5838 5835 5833 5830 5828 5825 5822 5820 5817 5815 5812 5810 5807 5805 5803 5801 5798 5796 5794 5792
5868 5868 5867 5866 5865 5863 5861 5860 5859 5857 5856 5854 5853 5851 5849 5848 5846 5844 5842 5840 5838 5836 5834 5831 5829 5826 5823 5821 5819 5816 5813 5811 5808 5806 5803 5801 5798 5796 5793 5791 5789 5787 5785
5860 5860 5859 5858 5857 5855 5854 5853 5851 5850 5848 5847 5845 5844 5842 5840 5839 5837 5835 5833 5831 5829 5827 5824 5822 5819 5816 5814 5811 5809 5806 5804 5801 5799 5796 5794 5791 5789 5786 5784 5782 5779 5777
5852 5851 5850 5850 5848 5847 5846 5845 5844 5842 5840 5839 5837 5836 5834 5832 5830 5829 5827 5825 5823 5821 5819 5816 5814 5811 5809 5806 5804 5801 5799 5796 5793 5791 5788 5786 5784 5781 5778 5776 5774 5771 5769
5842 5841 5840 5840 5839 5838 5838 5836 5835 5833 5832 5830 5829 5827 5825 5823 5821 5820 5818 5817 5814 5812 5810 5808 5805 5802 5800 5798 5796 5793 5790 5788 5785 5783 5780 5778 5775 5773 5770 5767 5765 5763 5760
5830 5830 5829 5828 5828 5828 5827 5826 5825 5824 5822 5820 5819 5818 5816 5814 5812 5811 5809 5807 5805 5803 5801 5799 5796 5793 5791 5789 5787 5784 5782 5779 5777 5774 5771 5769 5766 5764 5761 5758 5756 5753 5751
5819 5819 5818 5818 5818 5817 5816 5816 5815 5814 5812 5811 5809 5808 5807 5805 5804 5802 5800 5798 5795 5794 5791 5789 5787 5784 5782 5780 5778 5775 5773 5770 5767 5765 5762 5759 5757 5754 5751 5748 5746 5744 5741
5807 5807 5806 5805 5804 5804 5805 5805 5804 5804 5802 5801 5800 5798 5797 5796 5795 5793 5790 5788 5785 5783 5781 5779 5777 5775 5773 5770 5768 5766 5763 5761 5758 5755 5752 5749 5746 5744 5741 5738 5736 5733 5731
5794 5794 5792 5792 5791 5791 5792 5792 5793 5793 5792 5790 5789 5787 5787 5786 5784 5782 5780 5778 5775 5773 5770 5768 5766 5764 5762 5759 5757 5755 5753 5750 5747 5744 5741 5739 5736 5733 5730 5727 5725 5722 5720
5781 5780 5780 5780 5780 5780 5781 5781 5781 5781 5780 5779 5777 5776 5775 5774 5773 5771 5769 5767 5764 5762 5760 5758 5756 5753 5751 5749 5746 5744 5742 5739 5736 5733 5731 5728 5725 5722 5719 5717 5714 5711 5709
5767 5767 5767 5767 5767 5768 5769 5769 5768 5768 5768 5767 5766 5765 5763 5762 5761 5760 5758 5755 5753 5751 5749 5747 5745 5743 5740 5738 5736 5733 5731 5728 5725 5722 5719 5716 5714 5711 5708 5706 5703 5700 5698
5754 5754 5755 5755 5755 5755 5756 5756 5756 5755 5755 5754 5754 5753 5751 5750 5749 5747 5745 5743 5741 5739 5737 5736 5734 5732 5730 5727 5725 5722 5719 5717 5714 5711 5708 5706 5703 5700 5697 5695 5692 5689 5686
5741 5741 5742 5742 5743 5743 5743 5743 5742 5742 5742 5742 5741 5740 5739 5737 5736 5735 5733 5732 5730 5728 5726 5725 5723 5721 5718 5716 5713 5711 5708 5705 5702 5700 5697 5695 5692 5689 5686 5683 5680 5677 5675
5728 5729 5729 5730 5730 5730 5730 5730 5730 5730 5729 5729 5728 5727 5726 5726 5725 5723 5722 5721 5719 5717 5716 5714 5711 5709 5707 5704 5702 5699 5696 5694 5691 5689 5686 5683 5681 5678 5675 5672 5669 5666 5663
5716 5717 5717 5717 5718 5718 5718 5717 5717 5717 5717 5717 5716 5716 5715 5714 5713 5712 5711 5710 5708 5706 5704 5702 5700 5698 5695 5693 5690 5687 5685 5682 5680 5678 5675 5672 5670 5667 5664 5661 5658 5654 5652
5704 5705 5705 5706 5706 5706 5707 5706 5706 5705 5705 5705 5704 5703 5702 5702 5701 5700 5699 5698 5697 5695 5692 5690 5688 5686 5684 5681 5679 5676 5674 5671 5669 5667 5664 5661 5658 5656 5653 5650 5646 5643 5640
5693 5693 5694 5695 5695 5695 5695 5695 5694 5694 5693 5693 5692 5692 5692 5691 5690 5689 5688 5687 5685 5683 5681 5679 5677 5675 5672 5670 5667 5665 5663 5660 5658 5655 5652 5650 5647 5644 5641 5638 5635 5632 5629
5683 5683 5684 5684 5684 5684 5684 5684 5684 5683 5683 5682 5682 5681 5681 5680 5679 5678 5677 5676 5674 5672 5670 5667 5666 5663 5661 5658 5656 5654 5652 5649 5646 5644 5641 5638 5635 5632 5629 5626 5624 5621 5618
5672 5673 5673 5673 5673 5674 5673 5673 5673 5673 5673 5672 5672 5671 5670 5670 5668 5667 5665 5664 5662 5660 5659 5657 5655 5652 5650 5648 5645 5643 5641 5638 5635 5633 5630 5627 5624 5621 5618 5615 5613 5610 5607
5663 5663 5663 5664 5663 5663 5663 5663 5663 5663 5663 5663 5662 5661 5661 5659 5658 5656 5655 5653 5651 5649 5648 5646 5644 5641 5639 5637 5635 5632 5630 5627 5625 5622 5619 5616 5613 5610 5607 5604 5601 5598 5596